ANA701 YMML-YSSY

Flight info

Callsign ANA701
Flight time 0h 56m
Altitude 35000
Route DOSEL2/34 DOSEL Y59 RIVET
Aircraft A320/M-SDE3FGHIRWY/LB1

Departure

Time 2026-04-30 12:03
Airport Melbourne Airport (YMML)

Arrival

Time 2026-04-30 12:59
Airport Sydney Kingsford Smith International Airport (YSSY)
Time Latitude Longitude Altitude Speed Heading
2026-04-30 11:24 -37.66696 144.85149 399 ft 0 kts 82°
2026-04-30 11:49 -37.66699 144.85130 400 ft 4 kts 81°
2026-04-30 11:49 -37.66703 144.85100 398 ft 2 kts 66°
2026-04-30 11:50 -37.66706 144.85091 397 ft 2 kts 38°
2026-04-30 11:50 -37.66720 144.85086 398 ft 2 kts 356°
2026-04-30 11:50 -37.66731 144.85087 398 ft 2 kts 351°
2026-04-30 11:50 -37.66733 144.85088 399 ft 0 kts 352°
2026-04-30 11:54 -37.66713 144.85084 398 ft 9 kts 352°
2026-04-30 11:54 -37.66656 144.85073 401 ft 7 kts 351°
2026-04-30 11:54 -37.66620 144.85066 402 ft 6 kts 351°
2026-04-30 11:55 -37.66562 144.85058 403 ft 8 kts 351°
2026-04-30 11:55 -37.66531 144.85021 406 ft 8 kts 288°
2026-04-30 11:55 -37.66542 144.84898 406 ft 16 kts 262°
2026-04-30 11:55 -37.66566 144.84816 402 ft 10 kts 226°
2026-04-30 11:56 -37.66626 144.84764 403 ft 11 kts 232°
2026-04-30 11:56 -37.66646 144.84670 401 ft 11 kts 260°
2026-04-30 11:56 -37.66658 144.84573 400 ft 11 kts 261°
2026-04-30 11:56 -37.66669 144.84476 398 ft 11 kts 261°
2026-04-30 11:57 -37.66680 144.84380 397 ft 11 kts 261°
2026-04-30 11:57 -37.66691 144.84289 391 ft 10 kts 262°
2026-04-30 11:57 -37.66709 144.84207 392 ft 10 kts 231°
2026-04-30 11:57 -37.66778 144.84190 393 ft 11 kts 172°
2026-04-30 11:58 -37.66862 144.84206 390 ft 13 kts 171°
2026-04-30 11:58 -37.66953 144.84223 387 ft 13 kts 172°
2026-04-30 11:58 -37.67047 144.84241 385 ft 14 kts 171°
2026-04-30 11:58 -37.67142 144.84258 383 ft 14 kts 171°
2026-04-30 11:59 -37.67236 144.84276 381 ft 14 kts 171°
2026-04-30 11:59 -37.67369 144.84301 378 ft 27 kts 173°
2026-04-30 11:59 -37.67563 144.84337 373 ft 27 kts 172°
2026-04-30 11:59 -37.67711 144.84364 370 ft 16 kts 171°
2026-04-30 12:00 -37.67804 144.84349 364 ft 14 kts 210°
2026-04-30 12:00 -37.67858 144.84241 363 ft 15 kts 259°
2026-04-30 12:00 -37.67873 144.84116 364 ft 6 kts 261°
2026-04-30 12:00 -37.67873 144.84115 363 ft 0 kts 261°
2026-04-30 12:01 -37.67874 144.84110 362 ft 2 kts 262°
2026-04-30 12:01 -37.67879 144.84062 356 ft 8 kts 262°
2026-04-30 12:01 -37.67889 144.83987 355 ft 9 kts 261°
2026-04-30 12:02 -37.67880 144.83966 361 ft 0 kts 353°
2026-04-30 12:02 -37.67860 144.83963 360 ft 14 kts 353°
2026-04-30 12:02 -37.67517 144.83901 371 ft 88 kts 353°
2026-04-30 12:02 -37.66705 144.83750 437 ft 142 kts 353°
2026-04-30 12:03 -37.65668 144.83544 920 ft 160 kts 352°
2026-04-30 12:03 -37.63464 144.83115 2587 ft 155 kts 354°
2026-04-30 12:03 -37.62418 144.82913 3362 ft 150 kts 352°
2026-04-30 12:04 -37.61366 144.82713 3899 ft 161 kts 352°
2026-04-30 12:04 -37.60182 144.82488 4218 ft 183 kts 352°
2026-04-30 12:04 -37.58845 144.82517 4509 ft 210 kts 12°
2026-04-30 12:04 -37.57413 144.83282 4921 ft 237 kts 22°
2026-04-30 12:05 -37.56716 144.83707 5288 ft 240 kts 22°
2026-04-30 12:05 -37.55171 144.84657 6056 ft 252 kts 22°
2026-04-30 12:05 -37.53569 144.85636 6871 ft 260 kts 22°
2026-04-30 12:05 -37.51918 144.86641 7700 ft 266 kts 22°
2026-04-30 12:06 -37.50231 144.87666 8552 ft 272 kts 22°
2026-04-30 12:06 -37.48513 144.88709 9367 ft 277 kts 22°
2026-04-30 12:06 -37.46756 144.89777 10186 ft 284 kts 22°
2026-04-30 12:06 -37.44957 144.90963 10649 ft 304 kts 29°
2026-04-30 12:07 -37.43238 144.92703 11035 ft 327 kts 43°
2026-04-30 12:07 -37.41798 144.94975 11740 ft 337 kts 52°
2026-04-30 12:07 -37.40452 144.97399 12540 ft 340 kts 52°
2026-04-30 12:07 -37.39078 144.99839 13345 ft 343 kts 52°
2026-04-30 12:08 -37.37684 145.02298 14138 ft 346 kts 52°
2026-04-30 12:08 -37.36277 145.04774 14803 ft 351 kts 51°
2026-04-30 12:08 -37.34868 145.07252 15421 ft 355 kts 51°
2026-04-30 12:08 -37.33421 145.09801 16065 ft 360 kts 51°
2026-04-30 12:09 -37.31954 145.12387 16692 ft 365 kts 51°
2026-04-30 12:09 -37.30472 145.14997 17325 ft 370 kts 51°
2026-04-30 12:09 -37.28963 145.17651 17964 ft 374 kts 51°
2026-04-30 12:09 -37.27443 145.20325 18608 ft 378 kts 51°
2026-04-30 12:10 -37.25908 145.23028 19169 ft 382 kts 51°
2026-04-30 12:10 -37.24361 145.25753 19746 ft 384 kts 51°
2026-04-30 12:10 -37.22803 145.28492 20325 ft 387 kts 51°
2026-04-30 12:10 -37.21249 145.31218 20886 ft 390 kts 51°
2026-04-30 12:11 -37.19645 145.34031 21456 ft 393 kts 51°
2026-04-30 12:11 -37.18070 145.36788 21991 ft 395 kts 51°
2026-04-30 12:11 -37.16462 145.39604 22526 ft 398 kts 51°
2026-04-30 12:11 -37.14846 145.42434 23048 ft 401 kts 51°
2026-04-30 12:12 -37.13212 145.45288 23571 ft 404 kts 51°
2026-04-30 12:12 -37.11565 145.48160 24057 ft 407 kts 51°
2026-04-30 12:12 -37.09904 145.51053 24477 ft 410 kts 51°
2026-04-30 12:12 -37.08233 145.53961 24899 ft 412 kts 51°
2026-04-30 12:13 -37.06553 145.56882 25314 ft 415 kts 51°
2026-04-30 12:13 -37.04859 145.59830 25715 ft 417 kts 51°
2026-04-30 12:13 -37.03160 145.62782 26122 ft 420 kts 50°
2026-04-30 12:13 -37.01448 145.65749 26525 ft 422 kts 50°
2026-04-30 12:14 -36.99723 145.68736 26923 ft 425 kts 50°
2026-04-30 12:14 -36.97986 145.71743 27320 ft 427 kts 50°
2026-04-30 12:14 -36.96242 145.74762 27706 ft 430 kts 50°
2026-04-30 12:14 -36.94507 145.77764 28089 ft 432 kts 50°
2026-04-30 12:15 -36.92743 145.80814 28473 ft 434 kts 50°
2026-04-30 12:15 -36.90966 145.83882 28841 ft 437 kts 50°
2026-04-30 12:15 -36.89174 145.86968 29211 ft 440 kts 50°
2026-04-30 12:15 -36.87371 145.90072 29583 ft 442 kts 50°
2026-04-30 12:16 -36.85557 145.93191 29952 ft 445 kts 50°
2026-04-30 12:16 -36.83731 145.96328 30304 ft 447 kts 50°
2026-04-30 12:16 -36.81900 145.99480 30622 ft 450 kts 50°
2026-04-30 12:16 -36.80076 146.02616 30922 ft 451 kts 50°
2026-04-30 12:17 -36.76368 146.08965 31544 ft 453 kts 50°
2026-04-30 12:17 -36.74503 146.12149 31849 ft 455 kts 50°
2026-04-30 12:17 -36.72638 146.15334 32230 ft 454 kts 50°
2026-04-30 12:18 -36.70780 146.18505 32672 ft 451 kts 50°
2026-04-30 12:18 -36.68929 146.21668 33182 ft 453 kts 53°
2026-04-30 12:18 -36.67060 146.24860 33293 ft 458 kts 53°
2026-04-30 12:18 -36.65167 146.28087 33455 ft 463 kts 54°
2026-04-30 12:19 -36.63281 146.31297 33642 ft 467 kts 54°
2026-04-30 12:19 -36.61325 146.34624 33769 ft 473 kts 54°
2026-04-30 12:19 -36.59398 146.37900 33935 ft 477 kts 54°
2026-04-30 12:19 -36.57437 146.41229 34217 ft 478 kts 54°
2026-04-30 12:20 -36.55471 146.44560 34537 ft 478 kts 54°
2026-04-30 12:20 -36.53501 146.47893 34858 ft 477 kts 54°
2026-04-30 12:20 -36.51535 146.51218 34986 ft 476 kts 54°
2026-04-30 12:20 -36.49589 146.54507 35010 ft 470 kts 54°
2026-04-30 12:21 -36.45691 146.61086 35009 ft 475 kts 55°
2026-04-30 12:21 -36.41738 146.67747 35013 ft 485 kts 55°
2026-04-30 12:22 -36.37665 146.74606 35005 ft 501 kts 56°
2026-04-30 12:22 -36.33455 146.81680 35011 ft 517 kts 57°
2026-04-30 12:23 -36.29105 146.88965 35010 ft 533 kts 57°
2026-04-30 12:23 -36.24668 146.96374 35009 ft 545 kts 58°
2026-04-30 12:24 -36.20064 147.04040 35006 ft 562 kts 58°
2026-04-30 12:24 -36.15327 147.11924 35011 ft 578 kts 58°
2026-04-30 12:25 -36.10504 147.19928 35004 ft 582 kts 57°
2026-04-30 12:25 -36.05645 147.27950 35004 ft 582 kts 58°
2026-04-30 12:26 -36.00788 147.35956 35007 ft 582 kts 57°
2026-04-30 12:26 -35.95963 147.43922 35009 ft 582 kts 58°
2026-04-30 12:27 -35.91091 147.51937 35011 ft 583 kts 57°
2026-04-30 12:27 -35.86209 147.59931 35002 ft 584 kts 57°
2026-04-30 12:28 -35.81316 147.67924 35011 ft 584 kts 57°
2026-04-30 12:28 -35.76415 147.75922 35013 ft 584 kts 57°
2026-04-30 12:29 -35.71515 147.83904 35015 ft 584 kts 57°
2026-04-30 12:29 -35.66637 147.91823 35014 ft 585 kts 57°
2026-04-30 12:30 -35.61720 147.99796 35012 ft 585 kts 57°
2026-04-30 12:30 -35.56796 148.07772 35008 ft 586 kts 57°
2026-04-30 12:31 -35.51856 148.15746 35003 ft 586 kts 57°
2026-04-30 12:31 -35.46912 148.23698 35012 ft 586 kts 57°
2026-04-30 12:32 -35.41953 148.31668 35022 ft 586 kts 57°
2026-04-30 12:32 -35.37038 148.39545 35006 ft 586 kts 57°
2026-04-30 12:33 -35.32075 148.47472 35014 ft 587 kts 57°
2026-04-30 12:33 -35.27095 148.55405 35005 ft 587 kts 56°
2026-04-30 12:34 -35.22121 148.63328 35004 ft 588 kts 57°
2026-04-30 12:34 -35.17134 148.71258 35013 ft 587 kts 57°
2026-04-30 12:35 -35.12136 148.79164 35009 ft 587 kts 56°
2026-04-30 12:35 -35.07175 148.87006 35019 ft 587 kts 56°
2026-04-30 12:36 -35.02179 148.94900 35028 ft 586 kts 56°
2026-04-30 12:36 -34.97185 149.02759 35026 ft 586 kts 56°
2026-04-30 12:37 -34.92179 149.10598 35026 ft 586 kts 56°
2026-04-30 12:37 -34.87172 149.18431 35023 ft 586 kts 56°
2026-04-30 12:38 -34.84666 149.22360 34887 ft 586 kts 56°
2026-04-30 12:38 -34.82207 149.26211 34428 ft 584 kts 56°
2026-04-30 12:38 -34.79703 149.30127 33648 ft 587 kts 56°
2026-04-30 12:38 -34.77190 149.34043 32945 ft 587 kts 56°
2026-04-30 12:39 -34.74686 149.37975 32218 ft 587 kts 59°
2026-04-30 12:39 -34.72607 149.42191 31564 ft 577 kts 68°
2026-04-30 12:39 -34.70733 149.46488 31069 ft 572 kts 68°
2026-04-30 12:39 -34.68872 149.50751 30423 ft 570 kts 68°
2026-04-30 12:40 -34.67647 149.53558 30020 ft 561 kts 67°
2026-04-30 12:40 -34.65832 149.57714 29202 ft 552 kts 66°
2026-04-30 12:40 -34.64050 149.61793 28552 ft 540 kts 66°
2026-04-30 12:40 -34.62305 149.65780 27947 ft 527 kts 65°
2026-04-30 12:41 -34.60596 149.69674 27339 ft 515 kts 65°
2026-04-30 12:41 -34.58930 149.73462 26728 ft 504 kts 65°
2026-04-30 12:41 -34.57292 149.77181 26122 ft 494 kts 64°
2026-04-30 12:41 -34.55711 149.80772 25499 ft 485 kts 64°
2026-04-30 12:42 -34.54138 149.84347 24872 ft 476 kts 64°
2026-04-30 12:42 -34.52594 149.87862 24236 ft 468 kts 63°
2026-04-30 12:42 -34.51075 149.91316 23597 ft 460 kts 63°
2026-04-30 12:42 -34.49577 149.94721 22967 ft 453 kts 63°
2026-04-30 12:43 -34.48104 149.98066 22350 ft 446 kts 63°
2026-04-30 12:43 -34.46684 150.01285 21809 ft 418 kts 61°
2026-04-30 12:43 -34.45355 150.04292 21638 ft 389 kts 61°
2026-04-30 12:43 -34.44107 150.07104 21191 ft 371 kts 61°
2026-04-30 12:44 -34.42901 150.09814 20694 ft 358 kts 61°
2026-04-30 12:44 -34.41739 150.12419 20266 ft 344 kts 61°
2026-04-30 12:44 -34.40635 150.14898 19850 ft 333 kts 61°
2026-04-30 12:44 -34.39555 150.17329 19434 ft 323 kts 61°
2026-04-30 12:45 -34.38505 150.19686 19032 ft 313 kts 61°
2026-04-30 12:45 -34.37479 150.21985 18633 ft 309 kts 61°
2026-04-30 12:45 -34.36458 150.24279 18222 ft 310 kts 61°
2026-04-30 12:45 -34.35436 150.26571 17840 ft 310 kts 61°
2026-04-30 12:46 -34.34410 150.28869 17462 ft 310 kts 61°
2026-04-30 12:46 -34.33381 150.31175 17085 ft 310 kts 61°
2026-04-30 12:46 -34.32355 150.33476 16709 ft 311 kts 61°
2026-04-30 12:46 -34.31326 150.35776 16335 ft 311 kts 61°
2026-04-30 12:47 -34.30292 150.38084 15961 ft 312 kts 61°
2026-04-30 12:47 -34.29257 150.40396 15599 ft 313 kts 61°
2026-04-30 12:47 -34.28235 150.42679 15218 ft 313 kts 61°
2026-04-30 12:47 -34.27197 150.44999 14839 ft 314 kts 61°
2026-04-30 12:48 -34.26155 150.47324 14461 ft 315 kts 60°
2026-04-30 12:48 -34.25111 150.49657 14054 ft 316 kts 61°
2026-04-30 12:48 -34.24067 150.51993 13659 ft 315 kts 61°
2026-04-30 12:48 -34.23028 150.54318 13265 ft 314 kts 61°
2026-04-30 12:49 -34.21992 150.56637 12877 ft 313 kts 61°
2026-04-30 12:49 -34.20952 150.58951 12484 ft 312 kts 61°
2026-04-30 12:49 -34.19918 150.61250 12083 ft 311 kts 60°
2026-04-30 12:49 -34.18886 150.63541 11673 ft 310 kts 60°
2026-04-30 12:50 -34.17871 150.65799 11278 ft 309 kts 60°
2026-04-30 12:50 -34.16828 150.68120 10531 ft 320 kts 61°
2026-04-30 12:50 -34.15774 150.70466 9958 ft 312 kts 61°
2026-04-30 12:50 -34.14767 150.72708 9529 ft 297 kts 61°
2026-04-30 12:51 -34.13806 150.74842 9136 ft 283 kts 61°
2026-04-30 12:51 -34.12885 150.76882 8749 ft 270 kts 61°
2026-04-30 12:51 -34.12005 150.78833 8366 ft 258 kts 61°
2026-04-30 12:51 -34.11162 150.80700 7994 ft 248 kts 61°
2026-04-30 12:52 -34.10311 150.82466 7624 ft 238 kts 52°
2026-04-30 12:52 -34.09220 150.83923 7262 ft 231 kts 47°
2026-04-30 12:52 -34.08138 150.85331 6905 ft 226 kts 48°
2026-04-30 12:52 -34.07080 150.86710 6526 ft 222 kts 48°
2026-04-30 12:53 -34.06034 150.88075 6043 ft 223 kts 48°
2026-04-30 12:53 -34.04971 150.89459 5440 ft 228 kts 47°
2026-04-30 12:53 -34.03896 150.90856 4847 ft 232 kts 47°
2026-04-30 12:53 -34.02806 150.92275 4392 ft 228 kts 47°
2026-04-30 12:54 -34.01746 150.93654 4064 ft 220 kts 47°
2026-04-30 12:54 -34.00724 150.94978 3765 ft 212 kts 46°
2026-04-30 12:54 -33.99737 150.96254 3480 ft 204 kts 47°
2026-04-30 12:54 -33.98853 150.97553 3189 ft 198 kts 62°
2026-04-30 12:55 -33.98419 150.99097 2932 ft 192 kts 73°
2026-04-30 12:55 -33.98070 151.00610 2695 ft 182 kts 73°
2026-04-30 12:55 -33.97738 151.02036 2439 ft 172 kts 72°
2026-04-30 12:55 -33.97423 151.03384 2211 ft 161 kts 72°
2026-04-30 12:56 -33.97136 151.04610 2039 ft 144 kts 72°
2026-04-30 12:56 -33.96871 151.05739 1826 ft 137 kts 72°
2026-04-30 12:56 -33.96614 151.06834 1643 ft 135 kts 72°
2026-04-30 12:56 -33.96360 151.07914 1463 ft 135 kts 72°
2026-04-30 12:57 -33.96108 151.08987 1291 ft 134 kts 72°
2026-04-30 12:57 -33.95854 151.10066 1105 ft 134 kts 73°
2026-04-30 12:57 -33.95597 151.11148 926 ft 135 kts 73°
2026-04-30 12:57 -33.95336 151.12238 702 ft 136 kts 73°
2026-04-30 12:58 -33.95084 151.13347 490 ft 138 kts 75°
2026-04-30 12:58 -33.94818 151.14467 347 ft 140 kts 73°
2026-04-30 12:58 -33.94551 151.15603 166 ft 141 kts 75°
2026-04-30 12:58 -33.94281 151.16742 47 ft 141 kts 75°
2026-04-30 12:59 -33.94052 151.17742 29 ft 104 kts 72°
2026-04-30 12:59 -33.93898 151.18379 29 ft 54 kts 74°
2026-04-30 12:59 -33.93823 151.18693 26 ft 31 kts 74°
2026-04-30 12:59 -33.93769 151.18832 26 ft 13 kts 24°
2026-04-30 13:00 -33.93693 151.18820 28 ft 9 kts 343°
2026-04-30 13:00 -33.93643 151.18802 30 ft 6 kts 343°
2026-04-30 13:00 -33.93613 151.18779 30 ft 4 kts 307°
2026-04-30 13:00 -33.93612 151.18734 30 ft 9 kts 253°
2026-04-30 13:01 -33.93631 151.18658 30 ft 9 kts 258°
2026-04-30 13:01 -33.93602 151.18606 30 ft 7 kts 301°
2026-04-30 13:01 -33.93589 151.18559 30 ft 5 kts 304°
2026-04-30 13:01 -33.93569 151.18527 30 ft 4 kts 298°
2026-04-30 13:02 -33.93563 151.18497 30 ft 3 kts 281°
2026-04-30 13:02 -33.93555 151.18479 30 ft 2 kts 316°
2026-04-30 13:02 -33.93547 151.18476 30 ft 1 kts 343°
2026-04-30 13:02 -33.93541 151.18478 30 ft 2 kts 13°
2026-04-30 13:03 -33.93526 151.18484 30 ft 2 kts 14°
2026-04-30 13:03 -33.93514 151.18487 30 ft 1 kts 12°